Printer-friendly version
Follow the MPC on Twitter Follow the MPC on Facebook The MPC blog
Minor Planet Center

MPEC 2010-N35 : 2010 LU134

The following Minor Planet Electronic Circular may be linked-to from your own Web pages, but must not otherwise be redistributed electronically.

A form allowing access to any MPEC is at the bottom of this page.


Read MPEC 2010-N34 Read MPEC 2010-N36


M.P.E.C. 2010-N35                                Issued 2010 July 8, 18:28 UT

     The Minor Planet Electronic Circulars contain information on unusual
         minor planets and routine data on comets.  They are published
   on behalf of Commission 20 of the International Astronomical Union by the
          Minor Planet Center, Smithsonian Astrophysical Observatory,
                          Cambridge, MA 02138, U.S.A.

             Prepared using the Tamkin Foundation Computer Network

                              MPC@CFA.HARVARD.EDU
       URL http://www.minorplanetcenter.org/iau/mpc.html  ISSN 1523-6714

                                  2010 LU134

Observations:
     K10LD4U* S2010 06 14.35474 02 58 48.28 -61 45 49.9          22   R EN035C51
     K10LD4U  s2010 06 14.35474 1 + 1641.3308 - 1187.9621 - 6609.5031   EN035C51
     K10LD4U  S2010 06 14.55313 02 59 35.21 -61 35 59.7                 EN035C51
     K10LD4U  s2010 06 14.55313 1 + 1689.8294 - 1188.2342 - 6597.1523   EN035C51
     K10LD4U  S2010 06 14.61922 02 59 51.11 -61 32 43.6                 EN035C51
     K10LD4U  s2010 06 14.61922 1 + 1732.5775 - 1192.3603 - 6585.3587   EN035C51
     K10LD4U  S2010 06 14.61934 02 59 50.95 -61 32 42.3                 EN035C51
     K10LD4U  s2010 06 14.61934 1 + 1652.9574 - 1181.1603 - 6607.8188   EN035C51
     K10LD4U  S2010 06 14.68543 03 00 06.31 -61 29 25.5                 EN035C51
     K10LD4U  s2010 06 14.68543 1 + 1695.1080 - 1185.1955 - 6596.4259   EN035C51
     K10LD4U  S2010 06 14.88382 03 00 52.44 -61 19 29.7                 EN035C51
     K10LD4U  s2010 06 14.88382 1 + 1740.6767 - 1184.9369 - 6584.6501   EN035C51
     K10LD4U  S2010 06 14.95004 03 01 07.86 -61 16 12.6                 EN035C51
     K10LD4U  s2010 06 14.95004 1 + 1703.9099 - 1177.6408 - 6595.5194   EN035C51

Observer details:
C51 WISE.  Measurers A. Mainzer, E. Wright, J. Bauer, T. Grav, J. Dailey, J.
    Masiero, R. Cutri, R. McMillan, R. Walker.

Orbital elements:
2010 LU134                                               Earth MOID = 0.1191 AU
Epoch 2010 June 13.0 TT = JDT 2455360.5                 MPC
M 331.89859              (2000.0)            P               Q
n   0.46007863     Peri.  353.74083     +0.95820528     +0.27500894
a   1.6618099      Node   349.25800     -0.24070370     +0.62611019
e   0.4671087      Incl.   25.01709     -0.15461039     +0.72962738
P   2.14           H   21.4           G   0.15
From 7 observations 2010 June 14-14.

Ephemeris:
2010 LU134               a,e,i = 1.66, 0.47, 25                  q = 0.8856
Date    TT    R. A. (2000) Decl.     Delta      r     Elong.  Phase     V
2010 07 03    03 50.74   -43 40.0    0.424    1.017    78.0    78.0    22.3
2010 07 13    04 09.83   -31 06.8    0.392    0.964    71.2    86.2    22.3
2010 07 23    04 28.30   -16 13.5    0.374    0.923    65.1    93.3    22.4
2010 08 02    04 49.20   +00 06.9    0.377    0.896    61.2    97.2    22.5
2010 08 12    05 14.75   +15 46.2    0.404    0.886    60.3    96.4    22.6

Sonia Keys                   (C) Copyright 2010 MPC           M.P.E.C. 2010-N35

Read MPEC 2010-N34 Read MPEC 2010-N36


MPEC number:

Enter an MPEC number in one of the following forms:

  • 1997-B01 (the full form)
  • J97B01 (the packed version of the full form)
  • B01 (the abbreviated form)

Valid HTML 4.01!